Retour au catalogue

STARLINK-34132

ActifCommunicationsVLEO
NORAD 64086·PAYLOAD·🇺🇸 United States

Lancé May 21, 2025 depuis Cape Canaveral Space Force Station

Loading…

Prochains Passages (prochaines 24 heures)

TLE

FraisSource: CelesTrak SupGP

Époque: Sep 14, 2026, 21:38 UTC

1 64086C 25107Y   26257.90187500  .00020970  00000+0  75954-3 0  2578
2 64086  43.0002 213.1585 0001376 261.1724 179.6905 15.27568161    10

Suivez STARLINK-34132 en temps réel avec AllMySat

Download on the App Store